Hourly Data Report for October 01, 2016

All times are specified in Local Standard Time (LST). Add 1 hour to adjust for Daylight Saving Time where and when it is observed.

FREDERICTON
NEW BRUNSWICK

45°52'08.000" N
66°32'14.000" W
20.70 m
8101505
71700
YFC

Download Data

Hourly Data (October 2016)
Hourly Data Report for October 1, 2016
Temp Definition
°C
Dew Point Temp Definition
°C
Rel Hum Definition
%
Wind Dir Definition
10's deg

Wind Spd Definition
km/h
Visibility Definition
km
Stn Press Definition
kPa
Hmdx Definition


Wind Chill Definition


Weather Definition


TIME
00:00 Legend Double Dagger 5.0 4.5 97   0 16.1 102.84     LegendNANA
01:00 Legend Double Dagger 4.8 4.2 96   0 16.1 102.83     LegendNANA
02:00 Legend Double Dagger 4.2 3.5 95 18 5 16.1 102.81     LegendNANA
03:00 Legend Double Dagger 3.7 3.3 97 21 8 16.1 102.79     LegendNANA
04:00 Legend Double Dagger 4.0 3.6 97   0 16.1 102.78     LegendNANA
05:00 Legend Double Dagger 4.0 3.6 97   0 16.1 102.76     LegendNANA
06:00 Legend Double Dagger 4.2 3.9 98 20 5 16.1 102.77     LegendNANA
07:00 Legend Double Dagger 4.7 4.3 97 20 5 16.1 102.77     LegendNANA
08:00 Legend Double Dagger 7.0 6.1 94   0 16.1 102.75     LegendNANA
09:00 Legend Double Dagger 7.8 6.9 94 LegendMM 4 16.1 102.76     LegendNANA
10:00 Legend Double Dagger 10.1 8.1 87 LegendMM 4 16.1 102.76     LegendNANA
11:00 Legend Double Dagger 12.7 9.0 78 LegendMM 4 16.1 102.72     LegendNANA
12:00 Legend Double Dagger 14.8 9.1 69 9 5 16.1 102.63     LegendNANA
13:00 Legend Double Dagger 16.8 9.9 63   0 16.1 102.57     LegendNANA
14:00 Legend Double Dagger 17.3 9.5 60 LegendMM 4 16.1 102.50     LegendNANA
15:00 Legend Double Dagger 17.8 9.4 58   0 16.1 102.45     LegendNANA
16:00 Legend Double Dagger 17.7 8.9 56 12 5 16.1 102.40     LegendNANA
17:00 Legend Double Dagger 15.8 11.7 76   0 16.1 102.38     LegendNANA
18:00 Legend Double Dagger 14.4 11.3 81   0 16.1 102.35     LegendNANA
19:00 Legend Double Dagger 12.9 11.5 91   0 16.1 102.33     LegendNANA
20:00 Legend Double Dagger 12.1 10.6 91   0 16.1 102.29     LegendNANA
21:00 Legend Double Dagger 11.6 10.4 92 34 4 16.1 102.27     LegendNANA
22:00 Legend Double Dagger 11.0 10.2 95   0 16.1 102.23     LegendNANA
23:00 Legend Double Dagger 10.2 9.8 97 26 4 16.1 102.21     LegendNANA

Notes on Data Quality.

Legend

  • E = Estimated
  • M = Missing
  • NA = Not Available
  • ‡ = Partner data that is not subject to review by the National Climate Archives
Date modified: